Volver al catálogo

INTELSAT 33E DEB

ActivoMEO
NORAD 61999·DEBRIS· XX

Lanzado Aug 24, 2016 desde Guiana Space Centre

Loading…

Próximos Pases (próximas 24 horas)

TLE

ActualizadoSource: Space-Track

Época: Sep 14, 2026, 02:47 UTC

1 61999U 16053R   26257.11656464  .00000043  00000-0  00000-0 0  9991
2 61999   1.7323  76.4162 0115993  39.0809 322.5437  0.99256587  6907

Sigue INTELSAT 33E DEB en tiempo real con AllMySat

Download on the App Store